Tracking 20942 objects as of 15-Jul-2020
HD Live streaming from Space Station
objects crossing your sky now

SL-12 R/B(2)

Track SL-12 R/B(2) now!


NORAD ID: 19754
Int'l Code: 1989-001F
Perigee: 19,076.2 km
Apogee: 19,147.0 km
Inclination: 64.2 °
Period: 674.7 minutes
Semi major axis: 25482 km
RCS: 1.4062 m2 (large)
Launch date: January 10, 1989
Source: Commonwealth of Independent States (former USSR) (CIS)
Launch site: TYURATAM MISSILE AND SPACE COMPLEX (TTMTR)

Note: This is a ROCKET BODY
aabbcc
Your satellite tracking list
Your tracking list is empty




NASA's NSSDC Master Catalog

Two Line Element Set (TLE):
1 19754U 89001F   20196.59031355 +.00000030 +00000-0 +00000-0 0  9996
2 19754 064.1880 145.3675 0013893 238.7768 320.3535 02.13421211245527
Source of the keplerian elements: AFSPC